Miscellaneous Local Product
Issued by NWS Hastings, NE

Home | Current Version | Previous Version | Text Only | Print | Product List | Glossary On
Versions: 1 2 3 4 5 6 7 8 9 10 11 12 13 14 15 16 17 18 19 20 21 22 23 24 25 26 27 28 29 30 31 32 33 34 35 36 37 38 39 40 41 42 43 44 45 46 47 48 49 50
305
AXUS43 KGID 251402
MISGRI

GID CWA HOURLY WEATHER ROUNDUP
NATIONAL WEATHER SERVICE HASTINGS NE
900 AM CDT SUN SEP 25 2016

NOTE: "FAIR" INDICATES FEW OR NO CLOUDS BELOW 12,000 FEET WITH NO
SIGNIFICANT WEATHER AND/OR OBSTRUCTIONS TO VISIBILITY.

...SOUTH CENTRAL NEBRASKA...

CITY           SKY/WX    TMP DP  RH WIND       PRES   REMARKS
GRAND ISLAND   SUNNY     56  45  66 NW13      30.20S
HASTINGS       SUNNY     55  44  66 NW13      30.22R
KEARNEY        SUNNY     55  41  58 NW9       30.23R
ORD            SUNNY     57  42  57 NW20G28   30.18R
YORK           MOSUNNY   54  46  76 NW13      30.18R
AURORA         SUNNY     55  46  72 NW12G17   30.19S
LEXINGTON      SUNNY     54  44  67 NW14      30.25S
HOLDREGE       SUNNY     55  43  63 NW12G18   30.25R
HEBRON         CLOUDY    55  48  79 NW5       30.19R

...NEBRASKA PANHANDLE...

CITY           SKY/WX    TMP DP  RH WIND       PRES   REMARKS
CHADRON        MOSUNNY   50  41  71 W13       30.36R
ALLIANCE       SUNNY     47  41  80 NW14      30.35R
SCOTTSBLUFF    MOSUNNY   46  40  79 W7        30.40R
SIDNEY         SUNNY     47  39  74 NW15      30.40R

...WESTERN AND NORTH CENTRAL NEBRASKA...

CITY           SKY/WX    TMP DP  RH WIND       PRES   REMARKS
VALENTINE      SUNNY     55  41  59 W17G30    30.21R
AINSWORTH      MOSUNNY   55  45  69 W17G24    30.21S
ONEILL         MOSUNNY   59  42  53 W24G35    30.16R
BROKEN BOW     SUNNY     55  43  63 NW20G28   30.23R
IMPERIAL       SUNNY     53  40  61 NW21      30.34R
NORTH PLATTE   SUNNY     55  43  63 NW16G22   30.30R
MCCOOK         SUNNY     56  43  61 NW20G25   30.29R

...EASTERN NEBRASKA...

CITY           SKY/WX    TMP DP  RH WIND       PRES   REMARKS
NORFOLK        SUNNY     58  45  62 W15       30.12R
SO SIOUX CITY  SUNNY     57  49  74 W10       30.07R
TEKAMAH        CLOUDY    58  50  75 NW3       30.10R
COLUMBUS       SUNNY    N/A N/A N/A W12       30.15S
ALBION         SUNNY     57  45  62 NW13G22   30.16S
OMAHA EPPLEY   CLOUDY    59  50  72 NW7       30.11R
OFFUTT AFB     CLOUDY    59  50  73 NW10      30.10S
MILLARD        CLOUDY    59  49  68 NW7       30.11S
LINCOLN        CLOUDY    58  47  66 NW6       30.16R
NEBRASKA CITY  CLOUDY    59  46  62 NW10      30.14R
BEATRICE       CLOUDY    57  51  79 NW6       30.16R
FALLS CITY     CLOUDY    61  54  77 NW13      30.12R

...NORTHERN KANSAS...

CITY           SKY/WX    TMP DP  RH WIND       PRES   REMARKS
GOODLAND       SUNNY     54  40  59 N18       30.35R
HILL CITY      SUNNY     57  44  62 NW10      30.28R HAZE
NORTON         SUNNY     55  39  54 NW13      30.27R
PHILLIPSBURG   SUNNY     57  45  62 NW12G17   30.26R
SMITH CENTER   SUNNY     54  45  71 NW12G18   30.24R
HAYS           CLOUDY    57  39  51 N16       30.24R
CONCORDIA      CLOUDY    56  51  84 NW7       30.21R
SALINA         CLOUDY    60  51  72 N8        30.22R
TOPEKA         RAIN      67  65  93 W13       30.12R FOG



USA.gov is the U.S. government's official web portal to all federal, state and local government web resources and services.